Regional Weather Roundup
Issued by NWS

Home | Current Version | Previous Version | Graphics & Text | Print | Product List | Glossary Off
Versions: 1 2 3 4 5 6 7 8 9 10 11 12 13 14 15 16 17 18 19 20 21 22 23 24 25 26 27 28 29 30 31 32 33 34 35 36 37 38 39 40 41 42 43 44 45 46 47 48 49 50

000
ASUS43 KMKX 190111
RWRWI

WISCONSIN REGIONAL WEATHER ROUNDUP
NATIONAL WEATHER SERVICE MILWAUKEE/SULLIVAN WI
700 PM CST THU DEC 18 2014

NOTE: "FAIR" INDICATES FEW OR NO CLOUDS BELOW 12,000 FEET WITH NO
SIGNIFICANT WEATHER AND/OR OBSTRUCTIONS TO VISIBILITY.

WIZ001-002-006>008-014>016-023>028-190200-
NORTHWEST WISCONSIN

CITY           SKY/WX    TMP DP  RH WIND       PRES   REMARKS
SUPERIOR ARPT  CLOUDY    25  21  84 CALM      30.27R
ASHLAND        CLOUDY    22  18  85 SW3       30.28S
HAYWARD        CLOUDY    22  18  85 CALM      30.25R
SIREN          CLOUDY    23  19  87 CALM      30.26S
CUMBERLAND     CLOUDY    21  19  93 S3        30.24S
RICE LAKE      CLOUDY    23  19  86 CALM      30.27S
CHETEK         CLOUDY    23  20  90 CALM      30.26S
LADYSMITH      CLOUDY    23  21  89 CALM      30.26S
EAU CLAIRE     CLOUDY    24  18  77 CALM      30.27R
MENOMONIE      CLOUDY    24  21  87 CALM      30.27S
NEW RICHMOND   CLOUDY    22  19  89 CALM      30.27R
OSCEOLA        CLOUDY    23  19  85 CALM      30.30S
$$

WIZ003>005-009-010-017-018-190200-
NORTH CENTRAL WISCONSIN

CITY           SKY/WX    TMP DP  RH WIND       PRES   REMARKS
MANITOWISH WTR MOCLDY    12  11  96 CALM      30.21S
ARBOR VITAE    CLEAR     14  12  91 CALM      30.21F
WOODRUFF       CLEAR     14  12  91 CALM      30.21F
RHINELANDER    FAIR      18  15  88 CALM      30.21S
EAGLE RIVER    FOG       12  11  95 CALM      30.21R VSB 3/4
LAND O LAKES   CLEAR     10   7  91 CALM      30.22S
PHILLIPS       CLOUDY    21  17  83 CALM      30.22S
TOMAHAWK       CLEAR     10   8  90 CALM      30.23S
MEDFORD        CLOUDY    22  18  84 CALM      30.22S
MERRILL        CLEAR     14  13  96 CALM      30.23S
$$

WIZ029-030-035-036-043>047-190200-
CENTRAL WISCONSIN

CITY           SKY/WX    TMP DP  RH WIND       PRES   REMARKS
WAUSAU         CLEAR     20  16  84 CALM      30.23R
MOSINEE        NOT AVBL
MARSHFIELD     CLOUDY    25  19  78 CALM      30.24R
STEVENS POINT  CLEAR     18  16  93 CALM      30.25S
WAUPACA        CLEAR     22  18  85 CALM      30.26S
WAUTOMA        PTCLDY    22  19  88 CALM      30.27R
WISC RAPIDS    CLOUDY    24  19  81 W3        30.27R
CAMP DOUGLAS   CLOUDY    25  24  98 NE1       30.26S
$$

WIZ011>013-019>022-031-037>040-048>050-190200-
NORTHEAST WISCONSIN

CITY           SKY/WX    TMP DP  RH WIND       PRES   REMARKS
ANTIGO         CLEAR     18  16  89 CALM      30.21S
SHAWANO        CLEAR     23  19  84 CALM      30.26R
OCONTO         CLEAR     18  18 100 CALM      30.26S
STURGEON BAY   CLEAR     19  12  73 CALM      30.26S
GREEN BAY      CLEAR     22  19  89 CALM      30.26R
MANITOWOC      CLEAR     21  19  92 NW3       30.26S
APPLETON       PTCLDY    21  18  86 W5        30.26R WCI  15
CLINTONVILLE   CLEAR     25  19  80 W5        30.25R WCI  19
OSHKOSH        PTCLDY    24  18  77 NW3       30.26R
$$

WIZ032>034-041-042-053>061-190200-
SOUTHWEST WISCONSIN

CITY           SKY/WX    TMP DP  RH WIND       PRES   REMARKS
LA CROSSE      CLOUDY    26  18  71 N3        30.28S
SPARTA         CLOUDY    25  19  80 CALM      30.28R
VIROQUA        CLOUDY    23  19  86 CALM      30.24R
BOSCOBEL       CLOUDY    27  17  66 CALM      30.28R
PRAIRIE DU CHI CLOUDY    27  18  68 E3        30.28R
PLATTEVILLE    CLOUDY    25  19  78 CALM      30.26R
$$

WIZ056-057-062-063-064-067-068-190200-
SOUTH CENTRAL WISCONSIN

CITY           SKY/WX    TMP DP  RH WIND       PRES   REMARKS
REEDSBURG      CLOUDY    25  20  82 CALM      30.26S
BARABOO/DELLS  CLOUDY    25  19  79 CALM      30.25S
LONE ROCK      NOT AVBL
MINERAL POINT  CLOUDY    27  21  80 N5        30.24S WCI  21
MADISON        CLOUDY    27  22  81 NE5       30.25S WCI  22
MIDDLETON      CLOUDY    27  22  79 W5        30.25S WCI  22
WATERTOWN      CLOUDY    26  26 100 N6        30.25S FOG     WCI  19
MONROE         CLOUDY    27  21  80 CALM      30.24R
JANESVILLE     CLOUDY    28  25  86 CALM      30.25R
$$

WIZ051-052-058>065-066-070>072-190200-
SOUTHEAST WISCONSIN

CITY           SKY/WX    TMP DP  RH WIND       PRES   REMARKS
MILWAUKEE      FRZ DRZL  29  22  75 NW6       30.25R WCI  23
WAUKESHA       CLOUDY    25  23  93 NW6       30.26R FOG     WCI  18
MILWAUKEE/TIMM NOT AVBL
RACINE         CLOUDY    28  24  85 W5        30.26S WCI  23
BURLINGTON     CLOUDY    26  24  96 CALM      30.25S
KENOSHA        CLOUDY    27  25  92 NW7       30.25S WCI  19
FOND DU LAC    CLOUDY    26  19  74 NW3       30.26R
SHEBOYGAN      MOCLDY    26  20  77 NW5       30.25R WCI  20
WEST BEND      CLOUDY    27  19  74 N6        30.25R WCI  20
JUNEAU         CLOUDY    26  21  83 NW5       30.26S WCI  20
$$

LSZ147-162-190200-
LAKE SUPERIOR

STATION/POSITION TIME  TEMP    WIND        PRES    WAVE
                       AIR SEA DIR/SP/G            HT/PER
                 (UTC) (F)     (DEG/KT/KT) (MB)    (FT/S)
DEVILS ISLAND    0100   28     120/  8/ 10 1026.2S
PORT WING        0000   25     130/  2/  4 1025.4S
SAXON HARBOR     0040   26     210/  2/  4 1025.1S
$$

LMZ867-665-643>646-190200-
LAKE MICHIGAN

STATION/POSITION TIME  TEMP    WIND        PRES    WAVE
                       AIR SEA DIR/SP/G            HT/PER
                 (UTC) (F)     (DEG/KT/KT) (MB)    (FT/S)
CHAMBERS ISLAND  0000   30     340/ 11/ 14 1024.4R
NORTHPORT PIER   0101   28      10/  9/ 14 1024.4R
SISTER BAY       0043             CALM       N/A
ALGOMA LAKESHORE 0014             CALM       N/A
KEWAUNEE LAKESHO 0000   22     320/  1/  3 1023.5R
SHEBOYGAN LAKESH 0100   28 34  310/  7/  8 1025.5R
PORT WASHINGTON  0000   28     310/  6/ 10 1025.1
MILWAUKEE LAKESH 0000   29     330/  4/  6   N/A
KENOSHA   LAKESH 0100   28     290/  3/  8 1024.4R
$$

TC  - TEMPERATURE IN CELSIUS
VSB - VISIBILITY IN STATUTE MILES
WCI - WIND CHILL INDEX
HX  - HEAT INDEX



USA.gov is the U.S. government's official web portal to all federal, state and local government web resources and services.